Home > Weather > Lloydminster > Past weeks

Flag for Canada Past Weather in Lloydminster, Alberta, Canada — Yesterday and Last 2 Weeks

Now
77 °F

Passing clouds.


Feels Like: 79 °F
Forecast: 59 / 77 °F
Wind: 10 mph from East

Location: Lloydminister

Current Time: Jun 29, 2016 at 4:03:40 PM

Latest Report: Jun 29, 2016 at 3:00 PM


Visibility: 15 mi

Pressure: 30.19 "Hg (28.03 "Hg at 648m altitude)

Humidity: 47%

Dew Point: 55 °F

Location of LloydminsterLocation

Past Weather in Lloydminster — Graph

°F

Lloydminster Temperature Yesterday

Maximum temperature yesterday: 82 °F (at 1:00 PM)
Minimum temperature yesterday: 55 °F (at 3:00 AM)
Average temperature yesterday: 69 °F

High & Low Weather Summary for the Past Weeks

 TemperatureHumidityPressure
High82 °F (Jun 28, 1:00 PM)94% (Jun 15, 12:00 AM)30.24 "Hg (Jun 15, 12:00 AM)
Low43 °F (Jun 16, 3:00 AM)20% (Jun 15, 7:00 PM)29.55 "Hg (Jun 15, 2:00 AM)
Average61 °F67%29.94 "Hg
* Reported Jun 14 3:00 PM — Jun 29 3:00 PM, Lloydminster, Weather by CustomWeather, © 2016

Note: Actual official high and low records may vary slightly from our data, if they occured in-between our weather recording intervals... More about our weather records

Advertising

Lloydminster Weather History for the Previous 24 Hours

Scroll right to see more
 ConditionsComfort  
Time TempWeatherWind HumidityBarometerVisibility
3:00 PM
Wed, Jun 29
77 °FPassing clouds.10 mph47%30.19 "Hg15 mi
2:00 PM75 °FPassing clouds.8 mph50%30.19 "Hg15 mi
1:00 PM75 °FPassing clouds.8 mph54%30.20 "Hg15 mi
12:00 PM72 °FPassing clouds.8 mph57%30.21 "Hg15 mi
11:00 AM70 °FScattered clouds.8 mph64%30.21 "Hg15 mi
10:00 AM63 °FThunderstorms. Broken clouds.5 mph83%30.20 "Hg15 mi
9:00 AM61 °FThunderstorms. Partly sunny.5 mph83%30.19 "Hg15 mi
8:00 AM61 °FThunderstorms. Partly sunny.6 mph83%30.18 "Hg15 mi
7:00 AM61 °FScattered showers. Partly sunny.12 mph83%30.17 "Hg15 mi
6:00 AM57 °FScattered clouds.3 mph88%30.14 "Hg9 mi
5:00 AM55 °FOvercast.7 mph94%30.14 "Hg9 mi
4:00 AM55 °FPassing clouds.8 mph88%30.14 "Hg9 mi
3:00 AM57 °FPassing clouds.8 mph88%30.13 "Hg9 mi
2:00 AM57 °FPassing clouds.9 mph82%30.13 "Hg9 mi
1:00 AM59 °FPassing clouds.9 mph82%30.13 "Hg9 mi
12:00 AM57 °FPassing clouds.10 mph88%30.13 "Hg9 mi
11:00 PM
Tue, Jun 28
59 °FClear.7 mph77%30.13 "Hg9 mi
10:00 PM64 °FBroken clouds.No wind64%30.13 "Hg15 mi
9:00 PM66 °FBroken clouds.3 mph64%30.12 "Hg15 mi
8:00 PM68 °FBroken clouds.6 mph60%30.13 "Hg15 mi
7:00 PM73 °FBroken clouds.6 mph57%30.11 "Hg15 mi
6:00 PM79 °FBroken clouds.14 mph39%30.11 "Hg15 mi
5:00 PM77 °FPartly sunny.16 mph44%30.11 "Hg15 mi
4:00 PM81 °FPartly sunny.8 mph34%30.12 "Hg15 mi
Weather by CustomWeather, © 2016

See weather overviewHow to use our weather pages